Time,TemperatureF,DewpointF,PressureIn,WindDirection,WindDirectionDegrees,WindSpeedMPH,WindSpeedGustMPH,Humidity,HourlyPrecipIn,Conditions,Clouds,dailyrainin,SoftwareType,DateUTC
2015-05-03 00:01:00,43.9,30.9,29.50,East,90,0.0,0.0,60,0.00,,---,0.00,VWS V15.00,2015-05-03 04:01:00,
2015-05-03 00:06:00,43.7,31.1,29.50,East,90,1.6,1.6,61,0.00,,---,0.00,VWS V15.00,2015-05-03 04:06:00,
2015-05-03 00:11:00,43.3,30.8,29.50,East,90,1.1,1.1,61,0.00,,---,0.00,VWS V15.00,2015-05-03 04:11:00,
2015-05-03 00:16:00,43.0,30.5,29.50,East,90,1.1,1.3,61,0.00,,---,0.00,VWS V15.00,2015-05-03 04:16:00,
2015-05-03 00:21:00,42.8,30.3,29.53,East,90,0.0,0.0,61,0.00,,---,0.00,VWS V15.00,2015-05-03 04:21:00,
2015-05-03 00:26:00,42.4,30.4,29.53,East,90,0.0,0.0,62,0.00,,---,0.00,VWS V15.00,2015-05-03 04:26:00,
2015-05-03 00:31:00,42.3,30.6,29.53,East,90,1.3,1.6,63,0.00,,---,0.00,VWS V15.00,2015-05-03 04:31:00,
2015-05-03 00:37:00,41.9,30.2,29.53,East,90,1.3,1.6,63,0.00,,---,0.00,VWS V15.00,2015-05-03 04:37:00,
2015-05-03 00:42:00,41.7,30.1,29.53,East,90,0.0,0.0,63,0.00,,---,0.00,VWS V15.00,2015-05-03 04:42:00,
2015-05-03 00:47:00,41.5,29.9,29.53,East,90,0.0,0.0,63,0.00,,---,0.00,VWS V15.00,2015-05-03 04:47:00,
2015-05-03 00:52:00,41.2,29.9,29.53,East,90,0.0,0.0,64,0.00,,---,0.00,VWS V15.00,2015-05-03 04:52:00,
2015-05-03 00:58:00,40.8,29.6,29.53,East,90,0.0,0.0,64,0.00,,---,0.00,VWS V15.00,2015-05-03 04:58:00,
2015-05-03 01:03:00,40.6,29.8,29.53,East,90,0.0,0.0,65,0.00,,---,0.00,VWS V15.00,2015-05-03 05:03:00,
2015-05-03 01:08:00,40.5,29.6,29.53,East,90,0.0,0.0,65,0.00,,---,0.00,VWS V15.00,2015-05-03 05:08:00,
2015-05-03 01:13:00,40.3,29.5,29.53,East,90,0.0,0.0,65,0.00,,---,0.00,VWS V15.00,2015-05-03 05:13:00,
2015-05-03 01:18:00,39.9,29.1,29.53,East,90,0.0,0.0,65,0.00,,---,0.00,VWS V15.00,2015-05-03 05:18:00,
2015-05-03 01:23:00,39.7,29.0,29.53,East,90,0.0,0.0,65,0.00,,---,0.00,VWS V15.00,2015-05-03 05:23:00,
2015-05-03 01:28:00,39.6,29.1,29.53,East,90,0.0,0.0,66,0.00,,---,0.00,VWS V15.00,2015-05-03 05:28:00,
2015-05-03 01:33:00,39.4,28.6,29.53,East,90,0.0,0.0,65,0.00,,---,0.00,VWS V15.00,2015-05-03 05:33:00,
2015-05-03 01:38:00,39.2,28.8,29.53,East,90,0.0,0.0,66,0.00,,---,0.00,VWS V15.00,2015-05-03 05:38:00,
2015-05-03 01:43:00,38.8,28.5,29.53,East,90,0.0,0.0,66,0.00,,---,0.00,VWS V15.00,2015-05-03 05:43:00,
2015-05-03 01:48:00,38.7,28.7,29.50,East,90,0.0,0.0,67,0.00,,---,0.00,VWS V15.00,2015-05-03 05:48:00,
2015-05-03 01:53:00,38.7,28.7,29.50,East,90,0.0,0.0,67,0.00,,---,0.00,VWS V15.00,2015-05-03 05:53:00,
2015-05-03 01:58:00,38.5,28.5,29.50,East,90,0.0,0.0,67,0.00,,---,0.00,VWS V15.00,2015-05-03 05:58:00,
2015-05-03 02:04:00,38.3,28.7,29.53,East,90,0.0,0.0,68,0.00,,---,0.00,VWS V15.00,2015-05-03 06:04:00,
2015-05-03 02:09:00,38.1,28.5,29.53,East,90,0.0,0.0,68,0.00,,---,0.00,VWS V15.00,2015-05-03 06:09:00,
2015-05-03 02:15:00,37.9,28.0,29.53,East,90,1.3,1.3,67,0.00,,---,0.00,VWS V15.00,2015-05-03 06:15:00,
2015-05-03 02:20:00,37.9,28.7,29.50,East,90,1.6,2.0,69,0.00,,---,0.00,VWS V15.00,2015-05-03 06:20:00,
2015-05-03 02:25:00,37.9,28.7,29.50,East,90,1.6,2.0,69,0.00,,---,0.00,VWS V15.00,2015-05-03 06:25:00,
2015-05-03 02:31:00,37.6,28.0,29.50,East,90,1.6,1.6,68,0.00,,---,0.00,VWS V15.00,2015-05-03 06:31:00,
2015-05-03 02:36:00,37.4,27.8,29.50,East,90,1.6,2.2,68,0.00,,---,0.00,VWS V15.00,2015-05-03 06:36:00,
2015-05-03 02:41:00,37.2,28.0,29.50,East,90,2.0,2.0,69,0.00,,---,0.00,VWS V15.00,2015-05-03 06:41:00,
2015-05-03 02:47:00,37.0,27.8,29.50,East,90,0.0,0.0,69,0.00,,---,0.00,VWS V15.00,2015-05-03 06:47:00,
2015-05-03 02:52:00,37.0,27.8,29.50,East,90,1.3,1.3,69,0.00,,---,0.00,VWS V15.00,2015-05-03 06:52:00,
2015-05-03 02:57:00,36.9,27.7,29.50,East,90,0.0,1.1,69,0.00,,---,0.00,VWS V15.00,2015-05-03 06:57:00,
2015-05-03 03:02:00,36.7,27.5,29.50,East,90,0.0,0.0,69,0.00,,---,0.00,VWS V15.00,2015-05-03 07:02:00,
2015-05-03 03:07:00,36.7,27.8,29.50,East,90,0.0,0.0,70,0.00,,---,0.00,VWS V15.00,2015-05-03 07:07:00,
2015-05-03 03:13:00,36.5,27.7,29.50,East,90,0.0,0.0,70,0.00,,---,0.00,VWS V15.00,2015-05-03 07:13:00,
2015-05-03 03:18:00,36.3,27.5,29.50,East,90,0.0,0.0,70,0.00,,---,0.00,VWS V15.00,2015-05-03 07:18:00,
2015-05-03 03:23:00,36.1,27.3,29.50,East,90,0.0,0.0,70,0.00,,---,0.00,VWS V15.00,2015-05-03 07:23:00,
2015-05-03 03:29:00,36.0,27.1,29.50,East,90,0.0,0.0,70,0.00,,---,0.00,VWS V15.00,2015-05-03 07:29:00,
2015-05-03 03:34:00,35.8,27.0,29.53,East,90,1.3,2.0,70,0.00,,---,0.00,VWS V15.00,2015-05-03 07:34:00,
2015-05-03 03:40:00,35.8,27.0,29.53,East,90,1.6,1.6,70,0.00,,---,0.00,VWS V15.00,2015-05-03 07:40:00,
2015-05-03 03:46:00,35.4,26.6,29.53,East,90,1.3,1.6,70,0.00,,---,0.00,VWS V15.00,2015-05-03 07:46:00,
2015-05-03 03:51:00,35.4,27.0,29.53,East,90,0.0,0.0,71,0.00,,---,0.00,VWS V15.00,2015-05-03 07:51:00,
2015-05-03 03:56:00,35.2,26.8,29.53,East,90,0.0,0.0,71,0.00,,---,0.00,VWS V15.00,2015-05-03 07:56:00,
2015-05-03 04:01:00,35.1,26.6,29.53,East,90,0.0,0.0,71,0.00,,---,0.00,VWS V15.00,2015-05-03 08:01:00,
2015-05-03 04:06:00,35.1,27.0,29.53,East,90,0.0,0.0,72,0.00,,---,0.00,VWS V15.00,2015-05-03 08:06:00,
2015-05-03 04:11:00,34.9,26.8,29.53,East,90,0.0,0.0,72,0.00,,---,0.00,VWS V15.00,2015-05-03 08:11:00,
2015-05-03 04:17:00,34.9,26.8,29.53,East,90,0.0,0.0,72,0.00,,---,0.00,VWS V15.00,2015-05-03 08:17:00,
2015-05-03 04:23:00,34.7,26.6,29.53,East,90,1.3,1.6,72,0.00,,---,0.00,VWS V15.00,2015-05-03 08:23:00,
2015-05-03 04:28:00,34.5,26.4,29.53,East,90,1.1,1.3,72,0.00,,---,0.00,VWS V15.00,2015-05-03 08:28:00,
2015-05-03 04:34:00,34.3,25.9,29.53,East,90,1.3,1.3,71,0.00,,---,0.00,VWS V15.00,2015-05-03 08:34:00,
2015-05-03 04:39:00,34.2,25.8,29.53,East,90,1.1,1.3,71,0.00,,---,0.00,VWS V15.00,2015-05-03 08:39:00,
2015-05-03 04:44:00,34.0,25.6,29.53,East,90,0.0,0.0,71,0.00,,---,0.00,VWS V15.00,2015-05-03 08:44:00,
2015-05-03 04:49:00,34.0,25.9,29.53,East,90,0.0,0.0,72,0.00,,---,0.00,VWS V15.00,2015-05-03 08:49:00,
2015-05-03 04:54:00,33.8,25.7,29.53,East,90,0.0,0.0,72,0.00,,---,0.00,VWS V15.00,2015-05-03 08:54:00,
2015-05-03 04:59:00,33.8,25.7,29.53,East,90,0.0,0.0,72,0.00,,---,0.00,VWS V15.00,2015-05-03 08:59:00,
2015-05-03 05:04:00,33.8,25.7,29.53,East,90,1.6,2.0,72,0.00,,---,0.00,VWS V15.00,2015-05-03 09:04:00,
2015-05-03 05:10:00,33.6,25.6,29.53,East,90,1.6,2.0,72,0.00,,---,0.00,VWS V15.00,2015-05-03 09:10:00,
2015-05-03 05:16:00,33.6,25.6,29.53,East,90,0.9,1.1,72,0.00,,---,0.00,VWS V15.00,2015-05-03 09:16:00,
2015-05-03 05:22:00,33.3,25.2,29.53,East,90,0.0,0.0,72,0.00,,---,0.00,VWS V15.00,2015-05-03 09:22:00,
2015-05-03 05:27:00,33.3,25.6,29.53,East,90,0.0,0.0,73,0.00,,---,0.00,VWS V15.00,2015-05-03 09:27:00,
2015-05-03 05:32:00,33.3,25.6,29.53,East,90,0.0,0.0,73,0.00,,---,0.00,VWS V15.00,2015-05-03 09:32:00,
2015-05-03 05:37:00,33.3,25.6,29.53,East,90,2.2,2.2,73,0.00,,---,0.00,VWS V15.00,2015-05-03 09:37:00,
2015-05-03 05:42:00,33.3,25.6,29.53,East,90,0.0,0.0,73,0.00,,---,0.00,VWS V15.00,2015-05-03 09:42:00,
2015-05-03 05:47:00,33.3,25.6,29.56,East,90,0.0,0.0,73,0.00,,---,0.00,VWS V15.00,2015-05-03 09:47:00,
2015-05-03 05:52:00,33.3,25.6,29.56,East,90,0.0,0.0,73,0.00,,---,0.00,VWS V15.00,2015-05-03 09:52:00,
2015-05-03 05:57:00,33.3,25.6,29.56,East,90,2.0,2.0,73,0.00,,---,0.00,VWS V15.00,2015-05-03 09:57:00,
2015-05-03 06:02:00,33.3,25.9,29.56,East,90,1.1,1.3,74,0.00,,---,0.00,VWS V15.00,2015-05-03 10:02:00,
2015-05-03 06:07:00,33.4,26.1,29.56,East,90,1.6,2.0,74,0.00,,---,0.00,VWS V15.00,2015-05-03 10:07:00,
2015-05-03 06:12:00,33.4,26.1,29.56,East,90,1.1,2.2,74,0.00,,---,0.00,VWS V15.00,2015-05-03 10:12:00,
2015-05-03 06:19:00,33.6,26.2,29.56,East,90,0.0,0.0,74,0.00,,---,0.00,VWS V15.00,2015-05-03 10:19:00,
2015-05-03 06:24:00,33.6,26.2,29.56,East,90,0.0,0.0,74,0.00,,---,0.00,VWS V15.00,2015-05-03 10:24:00,
2015-05-03 06:30:00,33.6,26.2,29.56,East,90,0.0,0.0,74,0.00,,---,0.00,VWS V15.00,2015-05-03 10:30:00,
2015-05-03 06:36:00,33.8,26.4,29.56,East,90,0.0,0.0,74,0.00,,---,0.00,VWS V15.00,2015-05-03 10:36:00,
2015-05-03 06:41:00,34.0,26.6,29.56,East,90,0.0,0.0,74,0.00,,---,0.00,VWS V15.00,2015-05-03 10:41:00,
2015-05-03 06:46:00,34.2,26.8,29.56,East,90,0.0,0.0,74,0.00,,---,0.00,VWS V15.00,2015-05-03 10:46:00,
2015-05-03 06:51:00,34.3,26.9,29.56,East,90,0.0,0.0,74,0.00,,---,0.00,VWS V15.00,2015-05-03 10:51:00,
2015-05-03 06:56:00,34.5,27.4,29.56,East,90,0.0,0.0,75,0.00,,---,0.00,VWS V15.00,2015-05-03 10:56:00,
2015-05-03 07:01:00,34.9,27.8,29.56,East,90,0.0,0.0,75,0.00,,---,0.00,VWS V15.00,2015-05-03 11:01:00,
2015-05-03 07:06:00,35.2,28.1,29.56,East,90,0.0,0.0,75,0.00,,---,0.00,VWS V15.00,2015-05-03 11:06:00,
2015-05-03 07:11:00,35.6,28.5,29.56,East,90,0.0,0.0,75,0.00,,---,0.00,VWS V15.00,2015-05-03 11:11:00,
2015-05-03 07:17:00,36.1,29.0,29.56,East,90,0.0,0.0,75,0.00,,---,0.00,VWS V15.00,2015-05-03 11:17:00,
2015-05-03 07:22:00,36.7,29.8,29.56,East,90,0.0,0.0,76,0.00,,---,0.00,VWS V15.00,2015-05-03 11:22:00,
2015-05-03 07:28:00,37.6,30.7,29.56,East,90,0.0,0.0,76,0.00,,---,0.00,VWS V15.00,2015-05-03 11:28:00,
2015-05-03 07:33:00,38.1,31.6,29.56,East,90,0.0,0.0,77,0.00,,---,0.00,VWS V15.00,2015-05-03 11:33:00,
2015-05-03 07:39:00,39.4,32.8,29.56,East,90,2.0,2.0,77,0.00,,---,0.00,VWS V15.00,2015-05-03 11:39:00,
2015-05-03 07:44:00,39.9,33.3,29.56,East,90,0.0,1.1,77,0.00,,---,0.00,VWS V15.00,2015-05-03 11:44:00,
2015-05-03 07:50:00,41.0,34.3,29.56,East,90,0.0,0.0,77,0.00,,---,0.00,VWS V15.00,2015-05-03 11:50:00,
2015-05-03 07:55:00,41.7,35.0,29.56,East,90,0.0,1.6,77,0.00,,---,0.00,VWS V15.00,2015-05-03 11:55:00,
2015-05-03 08:00:00,42.4,35.8,29.56,East,90,0.0,0.0,77,0.00,,---,0.00,VWS V15.00,2015-05-03 12:00:00,
2015-05-03 08:05:00,43.0,36.3,29.56,East,90,0.0,0.0,77,0.00,,---,0.00,VWS V15.00,2015-05-03 12:05:00,
2015-05-03 08:10:00,44.1,37.0,29.56,ENE,68,1.1,1.6,76,0.00,,---,0.00,VWS V15.00,2015-05-03 12:10:00,
2015-05-03 08:16:00,45.1,38.0,29.56,ENE,68,0.0,0.0,76,0.00,,---,0.00,VWS V15.00,2015-05-03 12:16:00,
2015-05-03 08:21:00,45.7,38.2,29.56,East,90,1.1,2.0,75,0.00,,---,0.00,VWS V15.00,2015-05-03 12:21:00,
2015-05-03 08:27:00,46.6,38.8,29.56,East,90,1.6,2.0,74,0.00,,---,0.00,VWS V15.00,2015-05-03 12:27:00,
2015-05-03 08:32:00,47.1,38.9,29.56,East,90,0.0,0.0,73,0.00,,---,0.00,VWS V15.00,2015-05-03 12:32:00,
2015-05-03 08:37:00,47.8,39.3,29.56,ENE,68,2.5,2.5,72,0.00,,---,0.00,VWS V15.00,2015-05-03 12:37:00,
2015-05-03 08:43:00,48.6,39.6,29.56,ENE,68,1.3,2.9,71,0.00,,---,0.00,VWS V15.00,2015-05-03 12:43:00,
2015-05-03 08:48:00,49.1,39.4,29.56,ENE,68,2.0,2.0,69,0.00,,---,0.00,VWS V15.00,2015-05-03 12:48:00,
2015-05-03 08:53:00,49.8,39.7,29.56,ENE,68,0.0,1.6,68,0.00,,---,0.00,VWS V15.00,2015-05-03 12:53:00,
2015-05-03 08:58:00,50.2,39.3,29.56,ENE,68,0.9,1.3,66,0.00,,---,0.00,VWS V15.00,2015-05-03 12:58:00,
2015-05-03 09:05:00,50.7,39.4,29.56,ENE,68,1.6,2.2,65,0.00,,---,0.00,VWS V15.00,2015-05-03 13:05:00,
2015-05-03 09:11:00,51.6,39.5,29.56,SSE,158,2.2,2.2,63,0.00,,---,0.00,VWS V15.00,2015-05-03 13:11:00,
2015-05-03 09:17:00,52.3,39.3,29.56,ENE,68,2.9,3.6,61,0.00,,---,0.00,VWS V15.00,2015-05-03 13:17:00,
2015-05-03 09:22:00,53.1,39.6,29.56,NW,315,0.0,0.0,60,0.00,,---,0.00,VWS V15.00,2015-05-03 13:22:00,
2015-05-03 09:28:00,54.0,39.5,29.56,NE,45,2.7,2.7,58,0.00,,---,0.00,VWS V15.00,2015-05-03 13:28:00,
2015-05-03 09:33:00,54.7,38.8,29.56,NE,45,1.1,1.1,55,0.00,,---,0.00,VWS V15.00,2015-05-03 13:33:00,
2015-05-03 09:39:00,55.6,38.7,29.56,NE,45,1.3,2.7,53,0.00,,---,0.00,VWS V15.00,2015-05-03 13:39:00,
2015-05-03 09:44:00,56.3,39.4,29.56,East,90,1.3,2.7,53,0.00,,---,0.00,VWS V15.00,2015-05-03 13:44:00,
2015-05-03 09:49:00,57.2,39.2,29.56,NE,45,2.5,2.9,51,0.00,,---,0.00,VWS V15.00,2015-05-03 13:49:00,
2015-05-03 09:54:00,57.9,39.4,29.56,NE,45,3.4,3.4,50,0.00,,---,0.00,VWS V15.00,2015-05-03 13:54:00,
2015-05-03 10:00:00,58.8,38.7,29.56,East,90,2.9,3.8,47,0.00,,---,0.00,VWS V15.00,2015-05-03 14:00:00,
2015-05-03 10:05:00,59.4,38.0,29.56,NE,45,1.1,3.8,45,0.00,,---,0.00,VWS V15.00,2015-05-03 14:05:00,
2015-05-03 10:10:00,59.5,38.2,29.56,NE,45,2.0,2.0,45,0.00,,---,0.00,VWS V15.00,2015-05-03 14:10:00,
2015-05-03 10:15:00,60.1,38.7,29.56,NNE,22,1.1,1.6,45,0.00,,---,0.00,VWS V15.00,2015-05-03 14:15:00,
2015-05-03 10:21:00,60.8,38.8,29.53,ESE,112,2.9,4.0,44,0.00,,---,0.00,VWS V15.00,2015-05-03 14:21:00,
2015-05-03 10:26:00,61.3,38.7,29.53,ESE,112,1.3,2.7,43,0.00,,---,0.00,VWS V15.00,2015-05-03 14:26:00,
2015-05-03 10:31:00,61.9,38.0,29.53,WNW,292,1.6,2.0,41,0.00,,---,0.00,VWS V15.00,2015-05-03 14:31:00,
2015-05-03 10:36:00,62.6,38.0,29.53,East,90,2.7,4.0,40,0.00,,---,0.00,VWS V15.00,2015-05-03 14:36:00,
2015-05-03 10:41:00,63.7,37.6,29.53,ENE,68,2.9,2.9,38,0.00,,---,0.00,VWS V15.00,2015-05-03 14:41:00,
2015-05-03 10:46:00,64.9,38.1,29.53,NE,45,4.3,4.3,37,0.00,,---,0.00,VWS V15.00,2015-05-03 14:46:00,
2015-05-03 10:51:00,65.1,37.5,29.53,ENE,68,1.6,3.8,36,0.00,,---,0.00,VWS V15.00,2015-05-03 14:51:00,
2015-05-03 10:56:00,65.3,37.7,29.53,ENE,68,2.5,2.5,36,0.00,,---,0.00,VWS V15.00,2015-05-03 14:56:00,
2015-05-03 11:01:00,65.7,38.0,29.53,WSW,248,1.3,2.7,36,0.00,,---,0.00,VWS V15.00,2015-05-03 15:01:00,
2015-05-03 11:06:00,65.7,37.3,29.56,WNW,292,0.0,2.5,35,0.00,,---,0.00,VWS V15.00,2015-05-03 15:06:00,
2015-05-03 11:11:00,65.5,37.8,29.56,ENE,68,3.1,3.1,36,0.00,,---,0.00,VWS V15.00,2015-05-03 15:11:00,
2015-05-03 11:16:00,65.7,37.3,29.56,ENE,68,2.5,3.1,35,0.00,,---,0.00,VWS V15.00,2015-05-03 15:16:00,
2015-05-03 11:21:00,65.8,37.5,29.56,ENE,68,0.0,3.1,35,0.00,,---,0.00,VWS V15.00,2015-05-03 15:21:00,
2015-05-03 11:27:00,65.8,37.5,29.56,ENE,68,1.3,2.0,35,0.00,,---,0.00,VWS V15.00,2015-05-03 15:27:00,
2015-05-03 11:32:00,65.8,37.5,29.56,ENE,68,0.0,0.0,35,0.00,,---,0.00,VWS V15.00,2015-05-03 15:32:00,
2015-05-03 11:37:00,66.0,37.6,29.56,ENE,68,0.0,0.0,35,0.00,,---,0.00,VWS V15.00,2015-05-03 15:37:00,
2015-05-03 11:42:00,66.2,37.8,29.56,ENE,68,1.1,1.3,35,0.00,,---,0.00,VWS V15.00,2015-05-03 15:42:00,
2015-05-03 11:47:00,66.6,37.3,29.53,ENE,68,3.1,3.1,34,0.00,,---,0.00,VWS V15.00,2015-05-03 15:47:00,
2015-05-03 11:52:00,67.1,37.8,29.53,NNE,22,1.6,2.5,34,0.00,,---,0.00,VWS V15.00,2015-05-03 15:52:00,
2015-05-03 11:57:00,67.8,38.5,29.53,WNW,292,0.0,2.0,34,0.00,,---,0.00,VWS V15.00,2015-05-03 15:57:00,
2015-05-03 12:02:00,68.5,39.1,29.53,NNW,338,1.3,3.8,34,0.00,,---,0.00,VWS V15.00,2015-05-03 16:02:00,
2015-05-03 12:07:00,69.1,38.8,29.53,West,270,2.5,3.4,33,0.00,,---,0.00,VWS V15.00,2015-05-03 16:07:00,
2015-05-03 12:12:00,69.6,39.3,29.53,WNW,292,2.0,2.5,33,0.00,,---,0.00,VWS V15.00,2015-05-03 16:12:00,
2015-05-03 12:17:00,70.3,39.1,29.53,SW,225,1.1,2.5,32,0.00,,---,0.00,VWS V15.00,2015-05-03 16:17:00,
2015-05-03 12:22:00,70.7,39.4,29.53,ENE,68,2.5,3.8,32,0.00,,---,0.00,VWS V15.00,2015-05-03 16:22:00,
2015-05-03 12:28:00,71.8,39.5,29.53,SW,225,3.6,3.6,31,0.00,,---,0.00,VWS V15.00,2015-05-03 16:28:00,
2015-05-03 12:33:00,72.3,40.0,29.53,NE,45,2.7,3.4,31,0.00,,---,0.00,VWS V15.00,2015-05-03 16:33:00,
2015-05-03 12:38:00,72.5,39.3,29.53,East,90,4.3,4.3,30,0.00,,---,0.00,VWS V15.00,2015-05-03 16:38:00,
2015-05-03 12:43:00,73.0,39.8,29.53,NNW,338,2.7,2.9,30,0.00,,---,0.00,VWS V15.00,2015-05-03 16:43:00,
2015-05-03 12:48:00,73.2,40.0,29.53,WNW,292,3.1,3.1,30,0.00,,---,0.00,VWS V15.00,2015-05-03 16:48:00,
2015-05-03 12:53:00,73.2,40.0,29.53,WNW,292,1.6,2.2,30,0.00,,---,0.00,VWS V15.00,2015-05-03 16:53:00,
2015-05-03 12:58:00,73.6,40.3,29.53,ENE,68,3.4,3.4,30,0.00,,---,0.00,VWS V15.00,2015-05-03 16:58:00,
2015-05-03 13:03:00,73.8,38.7,29.50,West,270,4.9,5.4,28,0.00,,---,0.00,VWS V15.00,2015-05-03 17:03:00,
2015-05-03 13:08:00,73.8,38.7,29.50,SW,225,1.6,3.6,28,0.00,,---,0.00,VWS V15.00,2015-05-03 17:08:00,
2015-05-03 13:13:00,73.4,38.3,29.50,NW,315,1.3,2.2,28,0.00,,---,0.00,VWS V15.00,2015-05-03 17:13:00,
2015-05-03 13:18:00,73.4,38.3,29.50,ENE,68,0.0,2.5,28,0.00,,---,0.00,VWS V15.00,2015-05-03 17:18:00,
2015-05-03 13:23:00,73.8,38.7,29.50,WNW,292,0.9,1.1,28,0.00,,---,0.00,VWS V15.00,2015-05-03 17:23:00,
2015-05-03 13:28:00,73.9,38.8,29.50,WSW,248,2.9,3.4,28,0.00,,---,0.00,VWS V15.00,2015-05-03 17:28:00,
2015-05-03 13:33:00,74.3,38.2,29.50,SSW,202,2.0,2.0,27,0.00,,---,0.00,VWS V15.00,2015-05-03 17:33:00,
2015-05-03 13:38:00,74.3,38.2,29.50,NW,315,2.0,2.0,27,0.00,,---,0.00,VWS V15.00,2015-05-03 17:38:00,
2015-05-03 13:43:00,74.1,37.1,29.50,SSE,158,1.6,3.4,26,0.00,,---,0.00,VWS V15.00,2015-05-03 17:43:00,
2015-05-03 13:48:00,74.1,38.0,29.50,SE,135,2.2,3.8,27,0.00,,---,0.00,VWS V15.00,2015-05-03 17:48:00,
2015-05-03 13:53:00,73.8,36.8,29.50,NNW,338,2.5,2.5,26,0.00,,---,0.00,VWS V15.00,2015-05-03 17:53:00,
2015-05-03 13:58:00,73.6,36.6,29.50,ENE,68,2.2,2.5,26,0.00,,---,0.00,VWS V15.00,2015-05-03 17:58:00,
2015-05-03 14:03:00,72.9,37.0,29.53,WNW,292,1.1,1.6,27,0.00,,---,0.00,VWS V15.00,2015-05-03 18:03:00,
2015-05-03 14:08:00,72.3,36.5,29.53,ENE,68,2.5,2.5,27,0.00,,---,0.00,VWS V15.00,2015-05-03 18:08:00,
2015-05-03 14:13:00,72.3,36.5,29.53,ENE,68,1.3,3.6,27,0.00,,---,0.00,VWS V15.00,2015-05-03 18:13:00,
2015-05-03 14:18:00,73.0,36.2,29.50,ENE,68,4.0,7.6,26,0.00,,---,0.00,VWS V15.00,2015-05-03 18:18:00,
2015-05-03 14:23:00,74.5,37.4,29.50,ENE,68,3.6,4.9,26,0.00,,---,0.00,VWS V15.00,2015-05-03 18:23:00,
2015-05-03 14:28:00,76.1,38.8,29.50,West,270,2.2,2.2,26,0.00,,---,0.00,VWS V15.00,2015-05-03 18:28:00,
2015-05-03 14:33:00,76.1,37.8,29.50,WSW,248,2.5,5.6,25,0.00,,---,0.00,VWS V15.00,2015-05-03 18:33:00,
2015-05-03 14:38:00,75.7,37.5,29.50,ENE,68,3.8,3.8,25,0.00,,---,0.00,VWS V15.00,2015-05-03 18:38:00,
2015-05-03 14:43:00,75.2,37.0,29.50,East,90,2.0,2.9,25,0.00,,---,0.00,VWS V15.00,2015-05-03 18:43:00,
2015-05-03 14:48:00,74.1,36.1,29.50,WNW,292,1.3,2.7,25,0.00,,---,0.00,VWS V15.00,2015-05-03 18:48:00,
2015-05-03 14:53:00,73.4,35.5,29.50,SSE,158,2.0,2.5,25,0.00,,---,0.00,VWS V15.00,2015-05-03 18:53:00,